Location: Bathurst
(33.4193°S, 149.5775°E)
Time: 07:03:58
(UTC+10:00)

Courier 1B - All Passes

Search period start: 14 June 2021 00:00
Search period end: 24 June 2021 00:00
Orbit: 962 x 1209 km, 28.3° (Epoch: 12 June)

Date Brightness Start Highest point End Pass type
(mag) Time Alt. Az. Time Alt. Az. Time Alt. Az.
14 Jun - 01:38:56 10° NW 01:44:37 31° NNE 01:50:34 10° E night (unlit)
14 Jun - 03:31:37 10° WNW 03:38:13 54° N 03:45:16 10° E visible
14 Jun - 05:25:16 10° W 05:32:10 56° N 05:39:30 10° ENE visible
14 Jun - 07:19:28 10° W 07:26:02 35° NNW 07:32:54 10° NE daylight
14 Jun - 09:15:52 10° WNW 09:19:39 14° NNW 09:23:29 10° N daylight
15 Jun - 00:45:56 10° NNW 00:51:02 24° NNE 00:56:17 10° ENE night (unlit)
15 Jun - 02:38:06 10° WNW 02:44:29 48° NNE 02:51:15 10° E visible
15 Jun - 04:31:35 10° W 04:38:20 58° N 04:45:33 10° ENE visible
15 Jun - 06:25:35 10° W 06:32:14 41° NNW 06:39:16 10° NE visible
15 Jun - 08:20:56 10° WNW 08:25:54 19° NNW 08:31:00 10° NNE daylight
15 Jun - 23:53:14 10° NNW 23:57:29 18° NNE 00:01:48 10° ENE night (unlit)
16 Jun - 01:44:41 10° NW 01:50:49 42° NNE 01:57:14 10° E night (unlit)
16 Jun - 03:37:57 10° WNW 03:44:34 58° N 03:51:36 10° ENE visible
16 Jun - 05:31:47 10° W 05:38:27 47° NNW 05:45:32 10° ENE visible
16 Jun - 07:26:32 10° WNW 07:32:10 24° NNW 07:38:00 10° NNE daylight
16 Jun - 23:01:05 10° N 23:03:57 13° NNE 23:06:49 10° ENE night (unlit)
17 Jun - 00:51:22 10° NW 00:57:11 35° NNE 01:03:12 10° E night (unlit)
17 Jun - 02:44:20 10° WNW 02:50:49 56° N 02:57:39 10° E visible
17 Jun - 04:38:03 10° W 04:44:41 51° N 04:51:43 10° ENE visible
17 Jun - 06:32:25 10° W 06:38:25 29° NNW 06:44:44 10° NE visible
17 Jun - 08:31:10 10° NW 08:31:56 10° NNW 08:32:43 10° NNW daylight
17 Jun - 23:58:11 10° NW 00:03:36 28° NNE 00:09:07 10° E night (unlit)
18 Jun - 01:50:47 10° WNW 01:57:06 52° N 02:03:43 10° E visible
18 Jun - 03:44:22 10° W 03:50:55 55° N 03:57:51 10° ENE visible
18 Jun - 05:38:29 10° W 05:44:41 35° NNW 05:51:15 10° NE visible
18 Jun - 07:34:36 10° WNW 07:38:15 14° NNW 07:41:57 10° N daylight
18 Jun - 23:05:10 10° NNW 23:10:02 22° NNE 23:14:56 10° ENE night (unlit)
19 Jun - 00:57:17 10° WNW 01:03:26 46° NNE 01:09:48 10° E night (unlit)
19 Jun - 02:50:44 10° WNW 02:57:11 57° N 03:03:59 10° ENE visible
19 Jun - 04:44:39 10° W 04:50:58 41° NNW 04:57:37 10° NE visible
19 Jun - 06:39:50 10° WNW 06:44:32 19° NNW 06:49:25 10° NNE visible
19 Jun - 22:12:28 10° NNW 22:16:29 17° NNE 22:20:29 10° ENE night (unlit)
20 Jun - 00:03:50 10° NW 00:09:49 40° NNE 00:15:54 10° E night (unlit)
20 Jun - 01:57:06 10° WNW 02:03:28 56° N 02:10:07 10° ENE visible
20 Jun - 03:50:55 10° W 03:57:15 46° NNW 04:03:56 10° ENE visible
20 Jun - 05:45:32 10° WNW 05:50:51 24° NNW 05:56:24 10° NNE visible
20 Jun - 21:20:23 10° N 21:22:56 12° NNE 21:25:27 10° NE night (unlit)
20 Jun - 23:10:29 10° NW 23:16:12 33° NNE 23:21:57 10° E night (unlit)
21 Jun - 01:03:29 10° WNW 01:09:47 54° N 01:16:16 10° E night (unlit)
21 Jun - 02:57:12 10° W 03:03:33 51° N 03:10:11 10° ENE visible
21 Jun - 04:51:29 10° WNW 04:57:10 29° NNW 05:03:08 10° NE visible
21 Jun - 22:17:15 10° NNW 22:22:38 27° NNE 22:27:58 10° ENE night (unlit)
22 Jun - 00:09:53 10° WNW 00:16:07 50° N 00:22:26 10° E night (unlit)
22 Jun - 02:03:31 10° W 02:09:51 54° N 02:16:24 10° ENE visible
22 Jun - 03:57:36 10° W 04:03:31 35° NNW 04:09:42 10° NE visible
22 Jun - 05:53:37 10° WNW 05:56:58 14° NNW 06:00:25 10° N visible
22 Jun - 21:24:11 10° NNW 21:29:03 22° NNE 21:33:50 10° ENE night (unlit)
22 Jun - 23:16:19 10° WNW 23:22:29 44° NNE 23:28:38 10° E night (unlit)
23 Jun - 01:09:50 10° WNW 01:16:10 56° N 01:22:38 10° ENE night (unlit)
23 Jun - 03:03:47 10° W 03:09:51 40° NNW 03:16:09 10° NE visible
23 Jun - 04:58:54 10° WNW 05:03:20 18° NNW 05:07:54 10° NNE visible
23 Jun - 20:31:25 10° N 20:35:28 17° NNE 20:39:26 10° ENE visible
23 Jun - 22:22:48 10° NW 22:28:51 38° NNE 22:34:48 10° E night (unlit)
